Regional Weather Roundup
Issued by NWS

Home | Current Version | Previous Version | Text Only | Print | Product List | Glossary Off
Versions: 1 2 3 4 5 6 7 8 9 10 11 12 13 14 15 16 17 18 19 20 21 22 23 24 25 26 27 28 29 30 31

000
ASUS45 KGTF 180710
RWRMT
MONTANA HOURLY WEATHER ROUNDUP
NATIONAL WEATHER SERVICE GREAT FALLS MT
100 AM MDT SAT APR 18 2015

NOTE: "FAIR" INDICATES FEW OR NO CLOUDS BELOW 12000 FEET WITH NO
SIGNIFICANT WEATHER AND/OR OBSTRUCTIONS TO VISIBILITY.

MTZ001>007-043-180800-
WEST OF THE DIVIDE

CITY           SKY/WX    TMP DP  RH WIND       PRES   REMARKS
KALISPELL      SUNNY     39  32  76 VRB3      30.04R
MISSOULA       CLEAR     47  30  51 W8        30.08R
BUTTE          CLEAR     36  27  69 E7        30.10R WCI  30
DEER LODGE       N/A     39  27  60 CALM      30.12R
EUREKA           N/A     54  34  47 CALM      30.04F
HAMILTON         N/A     45  30  57 E3        30.10R
LIBBY            N/A     46  34  61 CALM      30.05R
$$

MTZ008-052>055-180800-
SOUTHWEST MONTANA

CITY           SKY/WX    TMP DP  RH WIND       PRES   REMARKS
BOZEMAN        CLEAR     37  26  64 SE8       30.06R WCI  31
DILLON         CLEAR     38  26  62 S7        30.07R
$$

MTZ009-010-012-014-046-048-049-054-180800-
EAST SLOPES AND CENTRAL MONTANA

CITY           SKY/WX    TMP DP  RH WIND       PRES   REMARKS
CUT BANK       MOCLDY    45  29  53 VRB6      30.01R
GREAT FALLS    CLEAR     39  27  62 SW7       29.99R
MALMSTROM AFB  CLEAR     50  31  47 SW3       29.99R
HELENA         CLEAR     47  25  42 SW3       30.03R
$$

MTZ011-013-016-021-045-047-050-051-180800-
NORTH CENTRAL MONTANA

CITY           SKY/WX    TMP DP  RH WIND       PRES   REMARKS
HAVRE          CLEAR     41  31  67 CALM      29.93R
LEWISTOWN      CLEAR     42  27  55 SE7       29.99S
FORT BENTON      N/A     48  34  57 S3        29.97R
$$

MTZ017>020-022>042-056>058-061-062-180800-
EASTERN PLAINS

CITY           SKY/WX    TMP DP  RH WIND       PRES   REMARKS
BAKER          CLEAR     40  29  64 E3        30.07S
BILLINGS       CLEAR     46  34  62 SW8       30.00F
GLASGOW        CLEAR     44  27  51 E14       29.96F
JORDAN           N/A     48  30  49 S3        29.99S
LIVINGSTON     CLEAR     36  22  56 NW8       30.05S WCI  30
MILES CITY     CLEAR     47  29  49 SE7       30.01F
SIDNEY         CLEAR     45  27  49 CALM      30.04F
WOLF POINT     CLEAR     42  29  59 NE7       30.00F
BIG TIMBER       N/A     45  27  49 SW7       30.04S
FORSYTH          N/A     48  32  53 SE6       29.99F
PLENTYWOOD       N/A     45  28  53 SE9       30.04S
POPLAR           N/A     48  28  46 E9        30.01S
$$

REGIONAL REPORTS...DAKOTAS

CITY           SKY/WX    TMP DP  RH WIND       PRES   REMARKS
WILLISTON      CLEAR     50  26  39 VRB3      30.06F
MINOT          CLEAR     40  27  59 SE8       30.11S
DICKINSON      CLEAR     42  25  50 SE10      30.06S
BEACH          FAIR      39  27  60 S8        30.06F
CROSBY         FAIR      41  28  60 E5        30.07F
WATFORD CITY   FAIR      41  27  56 E9        30.05S
BISMARCK       CLEAR     43  29  57 E7        30.11S
GRAND FORKS    CLEAR     33  26  75 N5        30.15S
FARGO          CLEAR     47  23  38 NE8       30.12R
BUFFALO SD       N/A     46  28  49 S6        30.01S
RAPID CITY     CLOUDY    48  44  86 CALM      30.08F
$$

REGIONAL REPORTS...WYOMING/IDAHO/WASHINGTON

CITY           SKY/WX    TMP DP  RH WIND       PRES   REMARKS
GILLETTE       PTCLDY    44  39  82 SW9       30.07F
SHERIDAN       PTCLDY    36  30  79 VRB3      30.02F
BUFFALO WY     MOCLDY    45  36  70 S13       30.06F
CODY           PTCLDY    45  30  57 SW9       30.05F
YELLOWSTONE LA   N/A     27  21  78 CALM      30.16R
IDAHO FALLS    CLEAR     45  29  53 SW7       30.05R
SALMON         CLEAR     46  25  42 SE8       30.07R
BOISE          CLEAR     54  33  45 W7        30.04R
SPOKANE        CLEAR     51  36  56 SW10      30.08S
$$

REGIONAL REPORTS...ALBERTA

CITY           SKY/WX    TMP DP  RH WIND       PRES   REMARKS
EDMONTON       CLEAR     41  32  70 W10       30.04R
CALGARY        LGT RAIN  46  32  57 N18G24    30.09R
LETHBRIDGE     CLEAR     48  27  43 N12       30.00R
MEDICINE HAT   MOCLDY    55  34  44 NW13G22   29.93R
$$

REGIONAL REPORTS...SASKATCHEWAN

CITY           SKY/WX    TMP DP  RH WIND       PRES   REMARKS
SWIFT CURRENT  MOCLDY    52  27  37 S20G26    29.85F
REGINA         PTCLDY    46  30  53 SE21G26   30.00F
SASKATOON      CLOUDY    54  25  32 S20G26    29.83F
$$



USA.gov is the U.S. government's official web portal to all federal, state and local government web resources and services.